Weather History for Beaufort, SC

Change the Weather History Date:

Friday, August 30, 2013

  Actual Average (KNBC) Record (KNBC)
Temperature  
Mean Temperature 82 °F -  
Max Temperature 87 °F 86 °F 99 °F (1938)
Min Temperature 77 °F 71 °F 46 °F (1997)
Cooling Degree Days 17    
Growing Degree Days 32 (Base 50)    
Moisture  
Dew Point 76 °F    
Average Humidity 85    
Maximum Humidity 100    
Minimum Humidity 70    
Precipitation  
Precipitation 0.00 in - - ()
Sea Level Pressure  
Sea Level Pressure 29.94 in    
Wind  
Wind Speed 7 mph (ENE)    
Max Wind Speed 13 mph    
Max Gust Speed 18 mph    
Visibility 6 miles    
Events      
Averages and records for this station are not official NWS values.
T = Trace of Precipitation, MM = Missing Value Source: NWS Daily Summary

Daily Weather History Graph

Daily Weather History Graph

Search for Another Location

Airport:

Trip Planner

Search our weather history database for the weather conditions in past years. The results will help you decide how hot, cold, wet, or windy it might be!

Date:

Astronomy

Aug. 30, 2013 Rise Set
Actual Time 6:56 AM EDT 7:49 PM EDT
Civil Twilight 6:31 AM EDT 8:14 PM EDT
Nautical Twilight 6:01 AM EDT 8:43 PM EDT
Astronomical Twilight 5:31 AM EDT 9:14 PM EDT
Moon 1:44 AM EDT (8/30) 3:53 PM EDT (8/30)
Length of Visible Light 13h 42m
Length of Day
12h 52m
Waning Crescent, 29% of the Moon is Illuminated
Aug 30
Waning Crescent
Sep 5
New
Sep 12
First Quarter
Sep 19
Full
Sep 26
Last Quarter

Hourly Weather History & Observations

Time (EDT) Temp. Heat Index Dew Point Humidity Pressure Visibility Wind Dir Wind Speed Gust Speed Precip Events Conditions
12:15 AM 80.6 °F 85.4 °F 73.4 °F 79% 29.92 in 7.0 mi North 6.9 mph - N/A   Scattered Clouds
12:35 AM 80.6 °F 85.4 °F 73.4 °F 79% 29.92 in 7.0 mi NE 6.9 mph - N/A   Clear
12:55 AM 80.6 °F 85.4 °F 73.4 °F 79% 29.92 in 7.0 mi North 3.5 mph - N/A   Clear
1:15 AM 80.6 °F 85.4 °F 73.4 °F 79% 29.91 in 7.0 mi Calm Calm - N/A   Clear
1:35 AM 80.6 °F 86.2 °F 75.2 °F 84% 29.91 in 7.0 mi Calm Calm - N/A   Scattered Clouds
1:55 AM 80.6 °F 86.2 °F 75.2 °F 84% 29.91 in 7.0 mi North 4.6 mph - N/A   Scattered Clouds
2:15 AM 80.6 °F 86.2 °F 75.2 °F 84% 29.91 in 7.0 mi NE 8.1 mph - N/A   Mostly Cloudy
2:35 AM 80.6 °F 86.2 °F 75.2 °F 84% 29.91 in 7.0 mi NE 8.1 mph - N/A   Scattered Clouds
2:55 AM 80.6 °F 86.2 °F 75.2 °F 84% 29.91 in 7.0 mi NE 9.2 mph - N/A   Scattered Clouds
3:15 AM 78.8 °F - 73.4 °F 83% 29.91 in 7.0 mi NE 5.8 mph - N/A   Clear
3:35 AM 78.8 °F - 73.4 °F 83% 29.90 in 7.0 mi ENE 4.6 mph - N/A   Clear
3:55 AM 78.8 °F - 75.2 °F 89% 29.90 in 7.0 mi NNE 5.8 mph - N/A   Clear
4:15 AM 78.8 °F - 75.2 °F 89% 29.90 in 7.0 mi NE 8.1 mph - N/A   Clear
4:35 AM 78.8 °F - 73.4 °F 83% 29.91 in 7.0 mi NE 9.2 mph - N/A   Clear
4:55 AM 78.8 °F - 75.2 °F 89% 29.91 in 7.0 mi NE 10.4 mph - N/A   Clear
5:15 AM 78.8 °F - 75.2 °F 89% 29.92 in 7.0 mi NE 10.4 mph - N/A   Clear
5:35 AM 78.8 °F - 77.0 °F 94% 29.92 in 5.0 mi ENE 9.2 mph - N/A   Scattered Clouds
5:55 AM 78.8 °F - 77.0 °F 94% 29.92 in 7.0 mi NE 10.4 mph - N/A   Mostly Cloudy
6:15 AM 78.8 °F - 77.0 °F 94% 29.92 in 5.0 mi ENE 8.1 mph - N/A   Scattered Clouds
6:35 AM 78.8 °F - 77.0 °F 94% 29.93 in 5.0 mi NE 10.4 mph - N/A   Scattered Clouds
6:55 AM 78.8 °F - 77.0 °F 94% 29.94 in 5.0 mi NE 10.4 mph - N/A   Scattered Clouds
7:15 AM 78.8 °F - 78.8 °F 100% 29.95 in 7.0 mi NE 9.2 mph - N/A   Mostly Cloudy
7:35 AM 78.8 °F - 78.8 °F 100% 29.95 in 4.0 mi NE 9.2 mph - N/A   Mostly Cloudy
7:55 AM 78.8 °F - 78.8 °F 100% 29.96 in 5.0 mi NE 8.1 mph - N/A   Mostly Cloudy
8:15 AM 78.8 °F - 78.8 °F 100% 29.97 in 4.0 mi NE 9.2 mph - N/A   Overcast
8:35 AM 78.8 °F - 78.8 °F 100% 29.97 in 5.0 mi NE 8.1 mph - N/A   Overcast
8:55 AM 78.8 °F - 78.8 °F 100% 29.98 in 5.0 mi ENE 6.9 mph - N/A   Overcast
10:15 AM 82.4 °F 90.9 °F 77.0 °F 84% 29.98 in 7.0 mi ENE 11.5 mph 18.4 mph N/A   Mostly Cloudy
10:35 AM 82.4 °F 90.9 °F 77.0 °F 84% 29.98 in 7.0 mi ENE 10.4 mph - N/A   Overcast
10:55 AM 82.4 °F 90.9 °F 77.0 °F 84% 29.99 in 5.0 mi East 12.7 mph - N/A   Haze
11:15 AM 84.2 °F 94.1 °F 77.0 °F 79% 29.98 in 5.0 mi East 9.2 mph - N/A   Haze
11:35 AM 86.0 °F 96.9 °F 77.0 °F 74% 29.98 in 5.0 mi East 8.1 mph - N/A   Haze
11:55 AM 84.2 °F 94.1 °F 77.0 °F 79% 29.98 in 7.0 mi East 9.2 mph - N/A   Mostly Cloudy
12:15 PM 86.0 °F 96.9 °F 77.0 °F 74% 29.98 in 5.0 mi ENE 8.1 mph - N/A   Haze
12:35 PM 86.0 °F 96.9 °F 77.0 °F 74% 29.98 in 5.0 mi East 4.6 mph - N/A   Haze
12:55 PM 86.0 °F 96.9 °F 77.0 °F 74% 29.98 in 7.0 mi East 6.9 mph - N/A   Mostly Cloudy
1:15 PM 86.0 °F 96.9 °F 77.0 °F 74% 29.97 in 5.0 mi East 6.9 mph - N/A   Haze
1:35 PM 86.0 °F 96.9 °F 77.0 °F 74% 29.96 in 7.0 mi ENE 5.8 mph - N/A   Mostly Cloudy
1:55 PM 87.8 °F 99.7 °F 77.0 °F 70% 29.96 in - East 5.8 mph - N/A   Scattered Clouds
2:15 PM 87.8 °F 99.7 °F 77.0 °F 70% 29.96 in - East 6.9 mph - N/A   Scattered Clouds
2:35 PM 87.8 °F 99.7 °F 77.0 °F 70% 29.95 in - East 10.4 mph - N/A   Scattered Clouds
2:55 PM 87.8 °F 99.7 °F 77.0 °F 70% 29.94 in 7.0 mi East 8.1 mph - N/A   Mostly Cloudy
3:15 PM 87.8 °F 99.7 °F 77.0 °F 70% 29.93 in 7.0 mi East 8.1 mph - N/A   Scattered Clouds
3:35 PM 87.8 °F 99.7 °F 77.0 °F 70% 29.93 in - East 9.2 mph - N/A   Scattered Clouds
3:55 PM 86.0 °F 96.9 °F 77.0 °F 74% 29.93 in 5.0 mi East 10.4 mph 16.1 mph N/A   Haze
4:15 PM 84.2 °F 94.1 °F 77.0 °F 79% 29.93 in 7.0 mi ESE 9.2 mph 16.1 mph N/A   Scattered Clouds
4:35 PM 84.2 °F 92.3 °F 75.2 °F 74% 29.92 in 7.0 mi East 11.5 mph - N/A   Scattered Clouds
4:55 PM 84.2 °F 94.1 °F 77.0 °F 79% 29.93 in 7.0 mi ESE 9.2 mph - N/A   Mostly Cloudy
5:15 PM 82.4 °F 89.5 °F 75.2 °F 79% 29.93 in 7.0 mi East 8.1 mph 17.3 mph N/A   Mostly Cloudy
5:35 PM 84.2 °F 94.1 °F 77.0 °F 79% 29.94 in 5.0 mi East 8.1 mph - N/A   Haze
5:55 PM 82.4 °F 89.5 °F 75.2 °F 79% 29.94 in 7.0 mi East 11.5 mph 16.1 mph N/A   Mostly Cloudy
6:15 PM 82.4 °F 89.5 °F 75.2 °F 79% 29.95 in 5.0 mi East 9.2 mph - N/A   Haze
6:35 PM 80.6 °F 86.2 °F 75.2 °F 84% 29.95 in 7.0 mi East 8.1 mph - N/A   Mostly Cloudy
6:55 PM 80.6 °F 86.2 °F 75.2 °F 84% 29.95 in 7.0 mi East 9.2 mph - N/A   Mostly Cloudy
7:15 PM 80.6 °F 86.2 °F 75.2 °F 84% 29.95 in 7.0 mi East 9.2 mph - N/A   Mostly Cloudy
7:35 PM 80.6 °F 86.2 °F 75.2 °F 84% 29.95 in 7.0 mi East 6.9 mph - N/A   Scattered Clouds
7:55 PM 78.8 °F - 75.2 °F 89% 29.95 in 7.0 mi East 4.6 mph - N/A   Scattered Clouds
8:15 PM 78.8 °F - 75.2 °F 89% 29.96 in 7.0 mi East 4.6 mph - N/A   Clear
8:35 PM 78.8 °F - 77.0 °F 94% 29.95 in 7.0 mi East 5.8 mph - N/A   Clear
8:55 PM 78.8 °F - 77.0 °F 94% 29.96 in 7.0 mi East 4.6 mph - N/A   Clear
9:15 PM 78.8 °F - 77.0 °F 94% 29.96 in 7.0 mi East 4.6 mph - N/A   Clear
9:35 PM 78.8 °F - 77.0 °F 94% 29.96 in 7.0 mi Calm Calm - N/A   Clear
9:55 PM 77.0 °F - 77.0 °F 100% 29.96 in 7.0 mi ESE 4.6 mph - N/A   Clear
10:15 PM 77.0 °F - 77.0 °F 100% 29.96 in 7.0 mi Calm Calm - N/A   Clear
10:35 PM 77.0 °F - 77.0 °F 100% 29.95 in 5.0 mi Calm Calm - N/A   Scattered Clouds
10:55 PM 77.0 °F - 77.0 °F 100% 29.95 in 7.0 mi ENE 3.5 mph - N/A   Scattered Clouds
11:15 PM 77.0 °F - 77.0 °F 100% 29.94 in 7.0 mi ENE 4.6 mph - N/A   Scattered Clouds
11:35 PM 77.0 °F - 77.0 °F 100% 29.94 in 5.0 mi East 3.5 mph - N/A   Scattered Clouds
11:55 PM 77.0 °F - 77.0 °F 100% 29.94 in 5.0 mi East 3.5 mph - N/A   Clear